Regional Weather Roundup
Issued by NWS Burlington, VT

Home | Current Version | Previous Version | Text Only | Print | Product List | Glossary On
Versions: 1 2 3 4 5 6 7 8 9 10 11 12 13 14 15 16 17 18 19 20 21 22 23 24 25 26 27 28 29 30 31 32 33 34 35 36 37 38 39 40 41 42 43 44 45 46 47 48 49 50
000
ASUS41 KBTV 161830
RWRBTV
VERMONT REGIONAL WEATHER ROUNDUP
NATIONAL WEATHER SERVICE BURLINGTON VT
100 PM EST MON JAN 16 2017

NOTE: "FAIR" INDICATES FEW OR NO CLOUDS BELOW 12,000 FEET WITH NO
SIGNIFICANT WEATHER AND/OR OBSTRUCTIONS TO VISIBILITY.

* THESE REPORTS ARE NOT UNDER NWS QUALITY CONTROL AND/OR DO NOT
  REPORT WEATHER SUCH AS PRECIPITATION AND FOG.

VTZ001>019-161900-
_____VERMONT_____


CITY           SKY/WX    TMP DP  RH WIND       PRES   REMARKS
BURLINGTON     MOSUNNY   35  17  47 S15G23    30.22F WCI  25
6HR MIN TEMP:  11; 6HR MAX TEMP:  35;

MONTPELIER     SUNNY     32  17  54 S10       30.21F WCI  24
6HR MIN TEMP:   4; 6HR MAX TEMP:  32;

MORRISVILLE    SUNNY     32  15  49 CALM      30.19F
6HR MIN TEMP:   5; 6HR MAX TEMP:  32;

ST. JOHNSBURY*   N/A     30  13  49 MISG      30.19F
6HR MIN TEMP:   4; 6HR MAX TEMP:  30;

LYNDONVILLE*   FAIR      26  13  58 SE8       30.19F WCI  17
6HR MIN TEMP:   1; 6HR MAX TEMP:  25;

MIDDLEBURY*    FAIR      34   4  27 S9        30.24F WCI  27
6HR MIN TEMP:  17; 6HR MAX TEMP:  33;

RUTLAND*       SUNNY     33  17  51 SW12      30.26F WCI  24
6HR MIN TEMP:  10; 6HR MAX TEMP:  34;

SPRINGFIELD    SUNNY     35  16  45 S8        30.26F WCI  29
6HR MIN TEMP:   5; 6HR MAX TEMP:  35;

HIGHGATE*      FAIR      34  18  51 S14G21    30.18F WCI  25
6HR MIN TEMP:  19; 6HR MAX TEMP:  33;

NEWPORT*       FAIR      30  14  50 S12G18    30.14F WCI  21
6HR MIN TEMP:  14; 6HR MAX TEMP:  29;

BENNINGTON     SUNNY     36  18  48 NW8       30.30F WCI  30
6HR MIN TEMP:  11; 6HR MAX TEMP:  36; 6HR PCP: TRACE;

SUTTON*          N/A     25 N/A N/A MISG        N/A
ISLAND POND*     N/A     28 N/A N/A SW7         N/A  WCI  21
GALLUP MILLS*    N/A     28 N/A N/A MISG        N/A
UNION VILLAGE*   N/A     32 N/A N/A MISG        N/A
MT. MANSFIELD*   N/A     19 N/A N/A W31G43      N/A  WCI   0

_____LAKE CHAMPLAIN_____


CITY           SKY/WX    TMP DP  RH WIND       PRES   REMARKS
BURTON ISLAND*   N/A     32  25  74 SW20        N/A  WCI  20
COLCHESTER RF*   N/A     32  25  74 S29         N/A  WCI  18
DIAMOND ISL*     N/A     32  21  64 SE17        N/A  WCI  21

$$

NYZ007-026>031-035-052-083-087-161900-
_____NORTHERN NEW YORK_____


CITY           SKY/WX    TMP DP  RH WIND       PRES   REMARKS
PLATTSBURGH    SUNNY     34  19  54 SE17      30.19F WCI  23
6HR MIN TEMP:  11; 6HR MAX TEMP:  34; 6HR PCP: TRACE;

SARANAC LAKE   SUNNY     34  16  47 SW13      30.16F WCI  25
6HR MIN TEMP:  16; 6HR MAX TEMP:  34;

MASSENA        SUNNY     37  26  64 SW18G29   30.22F WCI  27
6HR MIN TEMP:  25; 6HR MAX TEMP:  37;

OGDENSBURG*    FAIR      38  28  68 SW16G23   30.23F WCI  29
6HR MIN TEMP:  26; 6HR MAX TEMP:  39;

POTSDAM*       SUNNY     37  27  65 SW16G28   30.22F WCI  28
STARK FALLS*     N/A     32 N/A N/A SW10        N/A  WCI  24
WATERTOWN      CLOUDY    35  27  72 SW15      30.28F WCI  25
6HR MIN TEMP:  25; 6HR MAX TEMP:  35;

FT DRUM        MOSUNNY   33  22  62 SW14G22   30.25F WCI  24
6HR MIN TEMP:  21; 6HR MAX TEMP:  35;

ALBANY         MOSUNNY   35  18  49 S8        30.34F WCI  29
6HR MIN TEMP:  14; 6HR MAX TEMP:  35;

GLENS FALLS    CLOUDY    34  18  52 S12       30.30F WCI  25
6HR MIN TEMP:   9; 6HR MAX TEMP:  34;


$$
NHZ002-005-011-161900-
_____NEW HAMPSHIRE_____


CITY           SKY/WX    TMP DP  RH WIND       PRES   REMARKS
LEBANON        SUNNY     35  17  47 SW7       30.24F WCI  29
6HR MIN TEMP:   8; 6HR MAX TEMP:  35;

KEENE          SUNNY     35  17  47 SW12      30.29F WCI  27
6HR MIN TEMP:   6; 6HR MAX TEMP:  35; 6HR PCP: TRACE;

MT WASHINGTON  MOSUNNY   10   1  67 W51         N/A  WCI -16
6HR MIN TEMP:   5; 6HR MAX TEMP:  12;

PLYMOUTH       FAIR      33  14  46 CALM      30.23F
WHITEFIELD     SUNNY     32  11  41 N3        30.18F
6HR MIN TEMP:   1; 6HR MAX TEMP:  32;


$$

_____REGIONAL QUEBEC LOCATIONS_____


CITY           SKY/WX    TMP DP  RH WIND       PRES   REMARKS
MONTREAL       MOSUNNY   34  23  64 W18G28    30.16F WCI  23
QUEBEC CITY    CLOUDY    21  16  79 SW9       30.06F WCI  11
SHERBROOKE     MOSUNNY   30  12  47 SW10G18   30.12F WCI  21

_____REGIONAL ONTARIO LOCATIONS_____


CITY           SKY/WX    TMP DP  RH WIND       PRES   REMARKS
OTTAWA         MOSUNNY   36  21  55 SW15G24   30.18F WCI  26

______KEY______
VSB  - VISIBILITY IN MILES
WCI  - WIND CHILL INDEX
HX   - HEAT INDEX
$$
NNNN



USA.gov is the U.S. government's official web portal to all federal, state and local government web resources and services.